TimeCST,TemperatureF,Dew PointF,Humidity,Sea Level PressureIn,VisibilityMPH,Wind Direction,Wind SpeedMPH,Gust SpeedMPH,PrecipitationIn,Events,Conditions,WindDirDegrees,DateUTC
12:54 AM,24.1,19.0,81,30.27,10.0,NW,11.5,-,N/A,,Mostly Cloudy,310,2013-03-06 06:54:00
1:54 AM,25.0,19.9,81,30.29,10.0,NNW,15.0,-,N/A,,Overcast,330,2013-03-06 07:54:00
2:07 AM,24.8,19.4,80,30.26,10.0,NNW,13.8,-,N/A,,Overcast,330,2013-03-06 08:07:00
2:54 AM,23.0,19.0,85,30.31,10.0,NW,12.7,-,N/A,,Overcast,320,2013-03-06 08:54:00
3:13 AM,24.8,19.4,80,30.27,10.0,NW,12.7,-,N/A,,Overcast,320,2013-03-06 09:13:00
3:54 AM,23.0,19.0,85,30.32,10.0,NW,16.1,-,N/A,,Overcast,320,2013-03-06 09:54:00
4:54 AM,23.0,18.0,81,30.35,10.0,NNW,15.0,-,N/A,,Overcast,330,2013-03-06 10:54:00
5:54 AM,21.9,16.0,78,30.36,10.0,NNW,15.0,-,N/A,,Overcast,340,2013-03-06 11:54:00
6:54 AM,19.9,14.0,78,30.39,10.0,North,19.6,28.8,N/A,,Overcast,350,2013-03-06 12:54:00
7:54 AM,17.1,12.9,84,30.40,10.0,NNW,11.5,-,N/A,,Overcast,330,2013-03-06 13:54:00
8:54 AM,21.0,15.1,78,30.41,10.0,North,10.4,-,N/A,,Overcast,360,2013-03-06 14:54:00
9:54 AM,24.1,16.0,71,30.40,10.0,NNW,11.5,-,N/A,,Overcast,330,2013-03-06 15:54:00
10:38 AM,24.8,15.8,69,30.36,10.0,North,18.4,-,N/A,,Scattered Clouds,350,2013-03-06 16:38:00
10:54 AM,24.1,17.1,75,30.41,10.0,NNW,16.1,-,N/A,,Scattered Clouds,340,2013-03-06 16:54:00
11:03 AM,24.8,17.6,74,30.37,10.0,NNW,16.1,-,N/A,,Mostly Cloudy,340,2013-03-06 17:03:00
11:54 AM,26.1,18.0,71,30.41,10.0,NNW,13.8,-,N/A,,Overcast,330,2013-03-06 17:54:00
12:54 PM,26.1,18.0,71,30.40,10.0,NW,13.8,-,N/A,,Overcast,310,2013-03-06 18:54:00
1:54 PM,26.1,18.0,71,30.38,10.0,NW,10.4,-,N/A,,Overcast,320,2013-03-06 19:54:00
2:30 PM,26.6,17.6,69,30.33,10.0,NNW,10.4,-,N/A,,Scattered Clouds,340,2013-03-06 20:30:00
2:54 PM,26.1,17.1,69,30.38,10.0,North,6.9,-,N/A,,Clear,350,2013-03-06 20:54:00
3:37 PM,26.6,17.6,69,30.34,10.0,NW,9.2,-,N/A,,Mostly Cloudy,310,2013-03-06 21:37:00
3:54 PM,26.1,17.1,69,30.38,10.0,NW,9.2,-,N/A,,Mostly Cloudy,320,2013-03-06 21:54:00
4:09 PM,26.6,17.6,69,30.33,10.0,NNW,10.4,-,N/A,,Partly Cloudy,340,2013-03-06 22:09:00
4:54 PM,24.1,17.1,75,30.38,10.0,NNW,8.1,-,N/A,,Clear,330,2013-03-06 22:54:00
5:54 PM,19.9,14.0,78,30.38,10.0,NNW,9.2,-,N/A,,Clear,330,2013-03-06 23:54:00
6:54 PM,17.1,12.9,84,30.39,10.0,NW,4.6,-,N/A,,Clear,320,2013-03-07 00:54:00
7:54 PM,12.9,9.0,84,30.40,10.0,Calm,Calm,-,N/A,,Clear,0,2013-03-07 01:54:00
8:54 PM,6.1,3.9,91,30.38,8.0,Calm,Calm,-,N/A,,Clear,0,2013-03-07 02:54:00
9:54 PM,5.0,1.9,87,30.40,7.0,WSW,3.5,-,N/A,,Clear,250,2013-03-07 03:54:00
10:49 PM,-0.4,-4.0,85,30.33,1.0,Calm,Calm,-,N/A,,Mist,0,2013-03-07 04:49:00
10:52 PM,-0.4,-2.2,92,30.33,0.2,Calm,Calm,-,N/A,Fog,Light Freezing Fog,0,2013-03-07 04:52:00
10:54 PM,1.0,-2.0,87,30.39,0.2,Calm,Calm,-,N/A,Fog,Light Freezing Fog,0,2013-03-07 04:54:00
11:30 PM,-0.4,-2.2,92,30.33,0.2,Calm,Calm,-,N/A,Fog,Light Freezing Fog,0,2013-03-07 05:30:00
11:54 PM,-0.0,-2.0,91,30.40,0.2,Calm,Calm,-,N/A,Fog,Light Freezing Fog,0,2013-03-07 05:54:00